When you browse on this site, cookies collect data to enhance your experience and personalize the content and advertising you see.
Visit our Privacy Policy to learn more. By continuing to use the site, you agree to this use of cookies and data.
  • In Belgium
  • List of Countries
  • For 7 days
  • Water Temperature
  • Satellite Maps
  • Weather Map
  • Weather Widgets
  • user-avatar
    Login

    Hourly Weather Lugano

    Today, 18 December, Tuesday

    Time Temperature Precipitation Wind Pressure Humidity
    00:00 +2°C° 0 mm 2 mps 744 mmHg 68%
    01:00 +3°C° 0 mm 1 mps 744 mmHg 68%
    02:00 +3°C° 0 mm 1 mps 744 mmHg 64%
    03:00 +3°C° 0 mm 1 mps 744 mmHg 60%
    04:00 +3°C° 0 mm 1 mps 744 mmHg 56%
    05:00 +3°C° 0 mm 1 mps 744 mmHg 52%
    06:00 +3°C° 0 mm 1 mps 744 mmHg 49%
    07:00 +2°C° 0 mm 1 mps 744 mmHg 47%
    08:00 +4°C° 0 mm 1 mps 744 mmHg 45%
    09:00 +5°C° 0 mm 1 mps 744 mmHg 43%
    10:00 +6°C° 0 mm 1 mps 743 mmHg 41%
    11:00 +7°C° 0 mm 1 mps 743 mmHg 42%
    12:00 +8°C° 0 mm 1 mps 742 mmHg 43%
    13:00 +9°C° 0 mm 1 mps 742 mmHg 44%
    14:00 +7°C° 0 mm 1 mps 742 mmHg 47%
    15:00 +6°C° 0 mm 1 mps 742 mmHg 51%
    16:00 +5°C° 0 mm 1 mps 741 mmHg 55%
    17:00 +5°C° 0 mm 1 mps 742 mmHg 56%
    18:00 +4°C° 0 mm 1 mps 742 mmHg 57%
    19:00 +3°C° 0 mm 1 mps 742 mmHg 58%
    20:00 +3°C° 0 mm 1 mps 742 mmHg 57%
    21:00 +3°C° 0 mm 1 mps 742 mmHg 57%
    22:00 +3°C° 0 mm 1 mps 742 mmHg 56%
    23:00 +3°C° 0 mm 1 mps 742 mmHg 56%

    Tomorrow, 19 December, Wednesday

    Time Temperature Precipitation Wind Pressure Humidity
    00:00 +3°C° 0 mm 1 mps 742 mmHg 55%
    01:00 +3°C° 0 mm 1 mps 741 mmHg 55%
    02:00 +3°C° 0 mm 1 mps 741 mmHg 55%
    03:00 +3°C° 0 mm 1 mps 741 mmHg 56%
    04:00 +4°C° 0 mm 1 mps 740 mmHg 56%
    05:00 +4°C° 0 mm 1 mps 740 mmHg 57%
    06:00 +4°C° 0 mm 1 mps 740 mmHg 57%
    07:00 +4°C° 0 mm 1 mps 740 mmHg 57%
    08:00 +4°C° 0 mm 1 mps 740 mmHg 58%
    09:00 +5°C° 0 mm 1 mps 740 mmHg 58%
    10:00 +5°C° 0 mm 1 mps 740 mmHg 58%
    11:00 +6°C° 0 mm 1 mps 740 mmHg 61%
    12:00 +7°C° 0 mm 1 mps 739 mmHg 63%
    13:00 +7°C° 0 mm 1 mps 739 mmHg 65%
    14:00 +6°C° 0.1 mm 1 mps 739 mmHg 70%
    15:00 +6°C° 0.1 mm 1 mps 738 mmHg 75%
    16:00 +5°C° 0.1 mm 1 mps 738 mmHg 80%
    17:00 +5°C° 0.6 mm 1 mps 738 mmHg 84%
    18:00 +5°C° 0.6 mm 1 mps 738 mmHg 88%
    19:00 +5°C° 0.6 mm 1 mps 738 mmHg 91%
    20:00 +5°C° 1.3 mm 1 mps 738 mmHg 92%
    21:00 +5°C° 1.3 mm 1 mps 738 mmHg 93%
    22:00 +5°C° 1.3 mm 1 mps 738 mmHg 94%
    23:00 +5°C° 0.8 mm 1 mps 738 mmHg 94%

    Day after tomorrow, 20 December, Thursday

    Time Temperature Precipitation Wind Pressure Humidity
    00:00 +5°C° 0.8 mm 1 mps 738 mmHg 94%
    01:00 +5°C° 0.8 mm 1 mps 738 mmHg 95%
    02:00 +5°C° 0.1 mm 1 mps 738 mmHg 94%
    03:00 +5°C° 0.1 mm 1 mps 738 mmHg 93%
    04:00 +4°C° 0.1 mm 1 mps 738 mmHg 93%
    05:00 +4°C° 0 mm 1 mps 738 mmHg 93%
    06:00 +4°C° 0 mm 1 mps 739 mmHg 92%
    07:00 +3°C° 0 mm 1 mps 739 mmHg 92%
    08:00 +4°C° 0 mm 1 mps 739 mmHg 90%
    09:00 +5°C° 0 mm 1 mps 740 mmHg 87%
    10:00 +6°C° 0 mm 1 mps 740 mmHg 85%
    11:00 +7°C° 0 mm 1 mps 740 mmHg 83%
    12:00 +8°C° 0 mm 1 mps 739 mmHg 81%
    13:00 +8°C° 0 mm 1 mps 739 mmHg 80%
    14:00 +8°C° 0 mm 1 mps 739 mmHg 83%
    15:00 +7°C° 0 mm 1 mps 739 mmHg 86%
    16:00 +6°C° 0 mm 1 mps 739 mmHg 89%
    17:00 +5°C° 0 mm 1 mps 740 mmHg 88%
    18:00 +5°C° 0 mm 1 mps 741 mmHg 87%
    19:00 +3°C° 0 mm 2 mps 741 mmHg 85%
    20:00 +3°C° 0 mm 2 mps 742 mmHg 83%
    21:00 +2°C° 0 mm 2 mps 742 mmHg 81%
    22:00 +2°C° 0 mm 2 mps 743 mmHg 78%
    23:00 +2°C° 0 mm 2 mps 743 mmHg 77%

    21 December, Friday

    Time Temperature Precipitation Wind Pressure Humidity
    00:00 +3°C° 0 mm 1 mps 743 mmHg 76%
    01:00 +3°C° 0 mm 1 mps 743 mmHg 74%
    02:00 +3°C° 0 mm 1 mps 743 mmHg 74%
    03:00 +3°C° 0 mm 1 mps 743 mmHg 73%
    04:00 +3°C° 0 mm 1 mps 743 mmHg 72%
    05:00 +3°C° 0 mm 1 mps 743 mmHg 71%
    06:00 +3°C° 0 mm 1 mps 743 mmHg 70%
    07:00 +3°C° 0 mm 1 mps 743 mmHg 69%
    08:00 +4°C° 0 mm 1 mps 743 mmHg 68%
    09:00 +5°C° 0 mm 1 mps 742 mmHg 68%
    10:00 +6°C° 0 mm 1 mps 742 mmHg 68%
    11:00 +7°C° 0 mm 1 mps 742 mmHg 66%
    12:00 +8°C° 0 mm 1 mps 741 mmHg 65%
    13:00 +9°C° 0 mm 1 mps 741 mmHg 64%
    14:00 +8°C° 0.1 mm 1 mps 741 mmHg 67%
    15:00 +8°C° 0.1 mm 1 mps 741 mmHg 70%
    16:00 +7°C° 0.1 mm 1 mps 741 mmHg 72%
    17:00 +7°C° 0.1 mm 1 mps 741 mmHg 72%
    18:00 +6°C° 0.1 mm 1 mps 741 mmHg 71%
    19:00 +6°C° 0.1 mm 1 mps 741 mmHg 70%
    20:00 +6°C° 0.1 mm 1 mps 741 mmHg 70%
    21:00 +6°C° 0.1 mm 1 mps 741 mmHg 70%
    22:00 +6°C° 0.1 mm 1 mps 741 mmHg 70%
    23:00 +6°C° 0.1 mm 1 mps 741 mmHg 70%

    22 December, Saturday

    Time Temperature Precipitation Wind Pressure Humidity
    00:00 +7°C° 0.1 mm 1 mps 740 mmHg 71%
    01:00 +7°C° 0.1 mm 1 mps 740 mmHg 72%
    02:00 +7°C° 0 mm 1 mps 740 mmHg 74%
    03:00 +7°C° 0 mm 1 mps 740 mmHg 75%
    04:00 +7°C° 0 mm 1 mps 740 mmHg 77%
    05:00 +7°C° 0 mm 1 mps 740 mmHg 79%
    06:00 +7°C° 0 mm 1 mps 740 mmHg 80%
    07:00 +7°C° 0 mm 1 mps 740 mmHg 82%
    08:00 +8°C° 0.1 mm 1 mps 740 mmHg 81%
    09:00 +9°C° 0.1 mm 1 mps 740 mmHg 81%
    10:00 +10°C° 0.1 mm 1 mps 740 mmHg 80%
    11:00 +10°C° 0.2 mm 1 mps 740 mmHg 80%
    12:00 +11°C° 0.2 mm 1 mps 740 mmHg 80%
    13:00 +12°C° 0.2 mm 1 mps 740 mmHg 80%
    14:00 +11°C° 0 mm 1 mps 740 mmHg 83%
    15:00 +10°C° 0 mm 1 mps 740 mmHg 85%
    16:00 +10°C° 0 mm 1 mps 740 mmHg 87%
    17:00 +9°C° 0 mm 1 mps 740 mmHg 88%
    18:00 +9°C° 0 mm 1 mps 740 mmHg 88%
    19:00 +9°C° 0 mm 1 mps 741 mmHg 88%
    20:00 +7°C° 0 mm 2 mps 741 mmHg 87%
    21:00 +7°C° 0 mm 2 mps 741 mmHg 87%
    22:00 +7°C° 0 mm 2 mps 741 mmHg 86%
    23:00 +7°C° 0 mm 2 mps 741 mmHg 86%

    23 December, Sunday

    Time Temperature Precipitation Wind Pressure Humidity
    00:00 +7°C° 0 mm 2 mps 741 mmHg 85%
    01:00 +7°C° 0 mm 2 mps 741 mmHg 85%
    02:00 +7°C° 0.1 mm 2 mps 741 mmHg 85%
    03:00 +7°C° 0.1 mm 2 mps 741 mmHg 85%
    04:00 +7°C° 0.1 mm 2 mps 741 mmHg 84%
    05:00 +7°C° 0 mm 2 mps 741 mmHg 84%
    06:00 +7°C° 0 mm 2 mps 741 mmHg 84%
    07:00 +7°C° 0 mm 2 mps 741 mmHg 84%
    08:00 +8°C° 0 mm 2 mps 742 mmHg 83%
    09:00 +9°C° 0 mm 2 mps 742 mmHg 82%
    10:00 +10°C° 0 mm 1 mps 742 mmHg 81%
    11:00 +11°C° 0 mm 1 mps 742 mmHg 81%
    12:00 +12°C° 0 mm 1 mps 742 mmHg 81%
    13:00 +13°C° 0 mm 1 mps 742 mmHg 81%
    14:00 +12°C° 0 mm 1 mps 742 mmHg 83%
    15:00 +12°C° 0 mm 1 mps 742 mmHg 85%
    16:00 +11°C° 0 mm 1 mps 742 mmHg 88%
    17:00 +10°C° 0 mm 1 mps 742 mmHg 87%
    18:00 +10°C° 0 mm 1 mps 743 mmHg 87%
    19:00 +9°C° 0 mm 1 mps 743 mmHg 87%
    20:00 +9°C° 0 mm 1 mps 743 mmHg 85%
    21:00 +9°C° 0 mm 1 mps 743 mmHg 84%
    22:00 +9°C° 0 mm 1 mps 743 mmHg 83%
    23:00 +9°C° 0 mm 1 mps 743 mmHg 82%
    Show more